Wind_Speed
11 11 11 11 11 11 11 11 11 11 11 10 10 10 10 9 9 9 9 9 9 8 8 8 7 7 6 6 6 6 6 7 6 6 6 6 7 6 5 5 4 4 4
13 13 13 13 14 13 13 13 12 12 12 12 11 11 11 11 10 10 10 10 10 9 9 9 8 8 7 7 7 7 7 7 7 7 7 7 7 7 6 5 5 4 4
14 14 15 15 15 15 15 15 14 14 14 13 13 13 13 12 12 12 11 11 11 10 10 10 9 8 8 8 8 8 8 8 8 8 8 8 7 7 7 6 6 5 5
15 15 16 16 17 17 17 17 17 16 16 16 15 15 15 14 14 13 13 13 12 12 11 11 10 10 9 9 9 9 9 9 9 9 9 8 8 8 7 7 7 6 6
17 17 17 17 17 18 18 18 19 19 18 18 18 17 17 16 16 15 15 14 14 13 13 12 12 12 11 10 10 10 10 10 10 10 10 10 9 9 8 8 8 7 7
19 19 19 19 19 19 20 20 20 20 20 20 20 20 19 18 18 18 17 16 16 15 15 15 14 14 13 13 12 11 11 11 11 12 12 11 11 10 10 10 9 9 8
21 21 21 21 21 21 21 21 20 20 21 21 21 21 21 21 20 20 19 19 18 18 17 17 16 16 15 14 14 13 13 12 12 12 12 12 12 12 12 12 11 11 10
22 22 23 23 23 23 23 22 22 22 22 22 22 22 22 22 21 21 21 20 20 19 19 18 18 17 17 17 16 16 15 14 14 14 14 14 13 13 13 13 12 12 12
24 24 24 25 25 24 24 24 24 23 23 23 23 23 23 23 23 23 22 22 21 21 21 21 20 19 19 18 18 18 17 16 16 16 16 16 15 15 14 14 14 14 13
25 26 26 26 26 26 26 26 26 25 25 25 25 24 24 25 25 24 24 24 23 23 23 22 22 22 21 21 20 20 19 19 19 19 18 18 17 17 16 16 16 16 15
27 27 27 27 28 28 28 27 27 27 27 27 27 27 27 27 26 26 26 26 25 25 25 24 24 24 24 23 22 22 21 21 21 21 20 20 19 19 18 18 18 18 17
28 28 28 29 29 30 30 29 29 29 29 29 29 29 29 28 28 28 27 27 27 27 26 26 25 25 25 25 24 24 23 23 22 22 22 22 21 21 20 20 19 20 19
30 30 30 31 31 32 32 32 32 32 31 31 31 31 30 30 30 30 29 29 29 29 28 28 27 27 27 26 26 26 26 25 24 24 24 24 23 23 23 22 21 21 21
31 32 33 33 34 34 34 34 34 34 34 33 33 33 32 32 32 32 32 31 31 30 30 30 29 29 28 28 28 27 27 27 26 26 26 26 26 25 25 24 24 23 23
33 34 35 35 36 36 37 37 37 36 36 36 35 35 35 34 34 34 34 33 33 32 32 31 31 31 31 30 30 29 29 29 28 28 28 27 28 28 28 27 26 26 25
35 36 36 37 38 39 39 39 39 39 39 39 38 38 38 37 37 37 37 36 36 35 35 34 34 33 32 32 32 32 32 31 31 30 30 30 29 29 30 29 29 29 28
37 38 39 39 40 41 41 42 42 42 41 41 41 41 40 40 40 40 39 39 39 38 37 37 37 36 35 34 34 34 34 33 33 33 32 32 31 30 31 31 31 31 30
39 39 40 41 41 42 43 43 44 44 44 44 43 43 43 43 42 42 42 41 41 40 40 39 39 39 38 37 36 36 36 35 35 35 34 34 33 33 32 32 33 32 32
40 40 42 42 42 43 43 44 45 45 45 45 45 45 45 45 45 44 44 44 44 43 42 42 41 41 40 39 39 38 38 37 37 37 36 35 35 35 34 34 34 34 34
40 41 41 43 43 43 44 44 45 45 46 46 46 46 46 47 47 47 47 46 45 45 45 44 43 43 42 42 42 41 40 39 39 39 38 37 37 37 36 36 35 36 36
42 42 42 42 43 45 45 45 45 46 46 47 47 47 47 47 47 48 48 48 48 48 47 47 46 45 45 44 44 43 42 42 42 41 40 40 39 38 38 38 37 37 37
42 42 43 43 43 44 45 45 46 46 48 49 49 49 49 49 48 49 49 50 50 50 49 49 48 47 47 46 46 46 45 45 44 43 42 42 41 40 40 40 39 38 38
43 43 44 44 44 44 44 45 47 47 48 49 50 51 51 51 51 51 52 52 52 52 51 51 51 50 49 48 48 47 47 47 46 45 44 43 43 43 42 41 41 40 40
44 44 44 44 44 44 45 45 46 47 48 49 51 52 52 53 54 54 54 53 53 54 53 53 53 52 52 51 50 50 49 48 47 47 46 45 44 44 44 43 42 42 41
44 45 44 44 44 45 45 45 45 46 47 49 51 52 53 54 55 55 56 56 56 55 55 55 55 54 53 53 53 52 51 50 49 48 47 47 46 45 45 44 44 43 43
44 45 45 45 45 45 46 46 46 46 47 48 50 52 54 55 56 56 57 57 57 57 57 56 57 56 54 54 54 53 52 52 51 50 49 48 47 46 45 45 45 45 44
Wind_Direction
243 243 243 241 238 235 234 233 234 234 232 228 226 226 225 225 225 224 221 218 215 212 208 208 211 210 204 200 202 203 203 200 196 196 190 187 186 183 180 177 177 174 176
245 244 244 243 240 238 236 235 235 235 233 231 229 229 229 229 227 225 224 222 219 217 215 214 214 214 212 207 205 206 207 207 204 201 198 195 195 196 195 193 193 194 195
247 246 245 245 243 240 239 238 237 236 235 235 234 233 233 231 230 229 227 225 223 221 219 218 217 217 216 214 213 212 213 212 209 206 203 202 203 204 205 205 205 209 209
249 248 247 247 245 244 242 240 239 239 239 238 237 236 236 236 234 233 231 229 227 225 223 222 221 221 221 219 219 219 219 219 216 214 210 209 210 212 215 216 217 220 221
251 251 250 249 247 247 245 243 241 241 241 241 240 240 239 239 236 234 233 232 231 230 229 229 228 227 227 226 224 224 225 224 221 220 220 219 219 219 221 223 226 229 231
252 252 252 251 250 248 248 247 245 242 242 242 242 243 241 240 237 236 234 234 233 233 233 232 232 232 231 230 229 228 227 226 226 225 225 226 226 227 228 229 232 235 238
253 252 252 251 250 249 248 247 247 245 245 244 244 244 243 242 240 238 237 236 235 235 234 234 234 234 234 233 232 231 229 229 229 228 227 228 229 232 234 236 236 239 242
253 253 252 251 250 248 247 247 247 247 247 246 246 245 244 243 242 241 239 238 236 236 235 235 235 236 236 236 235 234 233 232 231 230 230 231 232 234 237 239 241 241 243
254 253 252 251 250 249 248 246 247 247 247 247 247 246 246 245 244 243 241 240 239 239 238 237 237 237 238 238 238 237 236 235 234 232 233 234 235 237 240 242 243 243 245
255 255 253 252 251 250 249 248 247 247 247 247 246 246 246 245 245 244 242 242 242 241 240 240 239 239 240 241 241 240 239 238 237 235 236 237 238 240 242 243 245 247 248
255 255 254 253 251 250 250 249 248 248 248 248 247 247 247 246 245 244 243 243 243 242 242 241 241 241 241 242 243 242 242 241 240 238 238 239 240 243 244 245 247 249 250
255 255 254 254 253 252 251 250 249 249 249 249 248 248 247 246 246 245 243 243 243 243 243 242 242 242 242 243 243 243 243 243 241 241 240 241 242 244 246 247 248 250 252
256 255 255 254 253 252 252 251 250 249 249 249 249 249 248 247 246 246 244 244 244 244 245 244 243 243 243 243 243 243 243 244 244 243 243 242 243 245 246 248 249 251 252
258 257 256 255 254 253 253 252 251 250 249 248 249 249 249 249 247 246 246 245 245 245 246 246 245 244 244 244 244 244 244 244 245 245 244 244 245 246 247 248 249 252 254
258 258 257 255 255 255 254 253 252 251 251 250 249 249 248 248 248 247 247 247 246 246 246 247 246 245 245 245 245 245 245 245 246 247 247 246 247 247 248 249 251 252 253
259 258 257 255 255 255 255 254 252 251 251 250 250 249 248 248 248 248 248 248 247 247 247 247 247 247 247 246 245 246 246 246 246 247 248 248 249 250 249 250 252 254 254
260 260 258 257 256 255 255 254 253 252 252 251 251 250 249 248 249 248 248 248 247 247 247 247 247 247 247 247 246 246 247 247 248 248 248 249 251 251 251 251 253 254 255
261 261 259 258 257 256 255 254 253 252 252 252 251 250 249 249 248 248 248 247 247 247 247 247 247 247 248 247 247 247 247 247 248 249 249 249 251 251 252 253 253 255 256
262 262 260 259 258 257 256 256 255 253 252 251 251 251 250 249 248 248 248 247 247 247 246 246 246 247 247 247 247 247 248 248 248 249 250 250 251 251 252 254 254 255 256
263 263 262 260 259 258 258 257 256 255 254 251 250 250 250 250 249 248 247 247 247 247 247 247 246 247 247 247 247 247 248 249 249 249 250 251 251 251 252 253 254 255 257
264 263 262 261 260 259 259 258 257 255 254 252 250 249 248 249 249 249 248 248 248 248 248 248 247 247 247 247 248 248 248 249 249 250 250 250 251 251 252 253 254 255 256
265 263 262 262 261 261 259 258 257 256 253 251 251 249 248 248 248 248 248 247 247 247 247 248 249 248 249 249 249 249 249 249 249 250 251 250 250 251 252 253 254 255 256
265 264 263 263 262 261 260 259 258 257 255 253 252 250 250 249 249 248 248 248 249 248 248 248 249 249 248 249 249 249 249 250 250 250 250 251 251 251 252 253 253 254 255
264 264 264 263 263 262 261 260 258 257 256 254 253 251 250 250 249 250 249 248 249 249 249 249 249 249 248 248 249 249 250 250 250 250 250 251 251 252 252 252 253 254 254
264 263 263 263 262 262 262 261 259 258 257 256 254 253 251 251 251 251 250 249 249 249 249 249 250 249 249 249 249 249 250 250 249 250 250 250 251 251 252 252 253 253 254
265 264 263 262 262 262 262 262 261 260 259 258 256 255 253 252 252 252 252 251 250 250 250 250 249 249 248 248 248 248 249 249 249 250 250 250 250 251 251 252 253 254 255
Height
5848 5848 5848 5849 5849 5849 5849 5850 5850 5850 5851 5851 5852 5852 5852 5852 5852 5853 5853 5854 5854 5854 5855 5855 5855 5856 5856 5856 5857 5857 5858 5858 5858 5859 5859 5860 5860 5861 5861 5862 5862 5862 5862
5845 5845 5846 5846 5846 5847 5847 5848 5848 5848 5849 5849 5850 5850 5850 5850 5851 5851 5852 5852 5852 5853 5853 5854 5854 5855 5855 5856 5856 5856 5857 5857 5858 5858 5859 5859 5860 5861 5861 5861 5862 5862 5862
5843 5843 5843 5843 5843 5844 5845 5845 5846 5846 5847 5847 5848 5848 5848 5849 5849 5849 5850 5850 5851 5851 5852 5852 5853 5853 5854 5855 5855 5855 5856 5856 5857 5858 5858 5859 5859 5860 5860 5861 5861 5862 5862
5839 5839 5840 5840 5840 5841 5842 5842 5843 5843 5844 5845 5845 5846 5846 5846 5847 5847 5848 5848 5849 5850 5850 5851 5851 5852 5853 5853 5854 5854 5855 5855 5856 5857 5857 5858 5858 5859 5859 5860 5860 5861 5861
5836 5836 5836 5837 5837 5838 5838 5839 5840 5840 5841 5842 5842 5843 5843 5844 5844 5845 5845 5846 5847 5848 5848 5849 5849 5850 5851 5852 5852 5853 5853 5854 5855 5855 5856 5856 5857 5858 5858 5859 5859 5860 5860
5832 5832 5833 5833 5834 5834 5835 5835 5836 5837 5837 5838 5839 5839 5840 5840 5841 5842 5842 5843 5844 5845 5846 5846 5847 5848 5849 5850 5850 5851 5851 5852 5853 5853 5854 5855 5856 5856 5857 5857 5858 5858 5859
5828 5828 5829 5829 5829 5830 5831 5831 5832 5832 5833 5834 5835 5835 5836 5837 5838 5838 5839 5840 5841 5842 5843 5843 5844 5845 5846 5847 5848 5848 5849 5850 5851 5851 5852 5853 5854 5854 5855 5856 5856 5857 5857
5823 5823 5824 5824 5825 5825 5826 5827 5827 5828 5829 5830 5830 5831 5832 5833 5833 5834 5835 5836 5837 5838 5839 5840 5841 5842 5843 5844 5845 5846 5847 5848 5848 5849 5850 5851 5852 5852 5853 5854 5854 5855 5855
5818 5818 5819 5819 5820 5820 5821 5822 5822 5823 5824 5825 5826 5827 5828 5829 5829 5830 5831 5833 5834 5835 5836 5837 5838 5838 5839 5840 5841 5842 5843 5844 5845 5846 5847 5848 5849 5850 5850 5851 5851 5852 5852
5812 5813 5813 5814 5814 5815 5816 5816 5817 5818 5819 5820 5821 5822 5823 5824 5825 5826 5827 5828 5829 5830 5831 5832 5833 5835 5836 5837 5838 5839 5840 5841 5842 5843 5844 5845 5846 5847 5848 5848 5849 5849 5850
5806 5807 5807 5808 5808 5809 5810 5811 5812 5813 5814 5814 5815 5816 5817 5818 5819 5820 5822 5823 5824 5825 5826 5828 5829 5830 5831 5832 5833 5835 5836 5837 5838 5839 5840 5841 5842 5843 5844 5845 5845 5846 5846
5800 5800 5801 5801 5802 5803 5803 5804 5805 5806 5807 5808 5809 5810 5811 5812 5813 5814 5816 5817 5819 5820 5821 5822 5824 5825 5826 5827 5829 5830 5831 5832 5834 5835 5836 5837 5838 5839 5840 5841 5841 5842 5843
5793 5793 5794 5794 5795 5796 5796 5797 5798 5799 5800 5801 5802 5804 5805 5806 5807 5808 5810 5811 5812 5814 5815 5816 5818 5819 5821 5822 5823 5825 5826 5827 5828 5830 5831 5833 5834 5835 5836 5836 5837 5838 5839
5785 5786 5786 5786 5787 5788 5788 5789 5790 5791 5792 5793 5795 5796 5798 5799 5800 5802 5803 5805 5806 5807 5809 5810 5812 5813 5815 5816 5818 5819 5821 5822 5823 5825 5826 5827 5829 5830 5831 5832 5832 5833 5834
5777 5777 5777 5778 5778 5779 5780 5781 5781 5783 5784 5785 5787 5788 5790 5791 5793 5794 5796 5798 5799 5801 5802 5804 5805 5807 5808 5810 5811 5813 5815 5816 5817 5819 5820 5822 5823 5824 5825 5826 5827 5828 5829
5768 5768 5768 5769 5769 5769 5770 5771 5772 5773 5775 5776 5778 5779 5781 5783 5784 5786 5788 5790 5791 5793 5795 5796 5798 5800 5801 5803 5805 5806 5808 5809 5811 5812 5814 5815 5817 5818 5819 5820 5821 5822 5823
5758 5758 5759 5759 5759 5760 5760 5761 5762 5763 5765 5766 5768 5770 5772 5773 5775 5777 5779 5781 5783 5785 5786 5788 5790 5792 5794 5795 5797 5799 5800 5802 5804 5805 5807 5809 5810 5811 5813 5814 5815 5816 5817
5747 5748 5748 5748 5749 5749 5750 5750 5751 5752 5754 5756 5758 5759 5761 5763 5765 5767 5769 5772 5773 5775 5778 5780 5782 5783 5785 5787 5789 5791 5793 5794 5796 5798 5800 5801 5803 5804 5806 5807 5808 5809 5810
5736 5736 5737 5737 5737 5738 5738 5739 5740 5741 5743 5745 5747 5749 5751 5752 5755 5757 5759 5762 5764 5766 5768 5770 5772 5774 5776 5778 5780 5782 5784 5786 5788 5790 5792 5793 5795 5797 5798 5799 5800 5802 5803
5725 5725 5725 5725 5726 5726 5727 5727 5728 5730 5731 5733 5735 5737 5739 5741 5743 5746 5748 5751 5753 5755 5758 5760 5762 5765 5767 5769 5770 5773 5775 5778 5780 5781 5783 5785 5787 5788 5790 5791 5792 5794 5795
5713 5713 5714 5714 5714 5715 5715 5716 5717 5718 5719 5721 5723 5725 5727 5729 5732 5734 5737 5739 5742 5744 5747 5749 5752 5754 5757 5758 5760 5763 5765 5768 5770 5772 5774 5776 5778 5780 5781 5783 5784 5785 5786
5701 5701 5702 5702 5702 5703 5703 5704 5705 5705 5707 5708 5710 5712 5715 5717 5719 5722 5724 5727 5730 5732 5735 5738 5740 5743 5746 5748 5750 5752 5755 5758 5760 5762 5764 5766 5768 5770 5772 5774 5775 5777 5778
5689 5689 5689 5690 5690 5690 5690 5691 5692 5693 5694 5696 5698 5700 5702 5704 5706 5709 5711 5714 5717 5720 5722 5725 5728 5731 5734 5737 5739 5742 5744 5747 5750 5752 5754 5756 5759 5761 5762 5764 5766 5767 5769
5677 5677 5677 5677 5677 5677 5678 5678 5679 5680 5681 5682 5684 5686 5688 5690 5693 5695 5698 5701 5704 5706 5709 5713 5716 5719 5722 5725 5727 5730 5733 5736 5739 5741 5743 5746 5748 5750 5752 5754 5756 5758 5759
5664 5664 5664 5664 5664 5664 5665 5665 5665 5666 5667 5668 5670 5672 5674 5676 5678 5681 5684 5687 5690 5692 5696 5699 5702 5705 5709 5712 5715 5718 5721 5724 5726 5729 5733 5735 5737 5739 5742 5744 5745 5747 5749
5651 5651 5651 5651 5651 5651 5651 5651 5652 5652 5653 5654 5655 5657 5659 5661 5664 5666 5669 5671 5675 5678 5681 5684 5687 5691 5695 5698 5701 5705 5708 5711 5715 5718 5721 5723 5726 5728 5730 5732 5735 5737 5739